TimeCDT,TemperatureF,Dew PointF,Humidity,Sea Level PressureIn,VisibilityMPH,Wind Direction,Wind SpeedMPH,Gust SpeedMPH,PrecipitationIn,Events,Conditions,WindDirDegrees,DateUTC
12:15 AM,54.3,37.4,53,29.98,10.0,West,5.8,-,N/A,,Clear,270,2012-10-15 05:15:00
12:35 AM,53.2,37.4,55,29.98,10.0,West,4.6,-,N/A,,Scattered Clouds,280,2012-10-15 05:35:00
12:55 AM,52.5,37.4,56,29.98,10.0,WNW,5.8,-,N/A,,Scattered Clouds,290,2012-10-15 05:55:00
1:15 AM,52.3,37.4,57,29.99,10.0,West,3.5,-,N/A,,Clear,270,2012-10-15 06:15:00
1:35 AM,51.4,37.6,59,29.99,10.0,Calm,Calm,-,N/A,,Clear,0,2012-10-15 06:35:00
1:55 AM,50.7,37.6,61,29.98,10.0,Calm,Calm,-,N/A,,Clear,0,2012-10-15 06:55:00
2:15 AM,51.3,37.6,60,29.98,10.0,Calm,Calm,-,N/A,,Clear,0,2012-10-15 07:15:00
2:35 AM,46.8,38.3,72,29.98,10.0,Calm,Calm,-,N/A,,Scattered Clouds,0,2012-10-15 07:35:00
2:55 AM,50.9,37.6,60,29.98,10.0,Calm,Calm,-,N/A,,Clear,0,2012-10-15 07:55:00
3:15 AM,50.9,37.6,60,29.98,10.0,Calm,Calm,-,N/A,,Clear,0,2012-10-15 08:15:00
3:35 AM,50.9,38.5,62,29.97,10.0,ENE,3.5,-,N/A,,Clear,70,2012-10-15 08:35:00
3:55 AM,50.2,38.5,64,29.97,10.0,Calm,Calm,-,N/A,,Clear,0,2012-10-15 08:55:00
4:15 AM,50.5,38.5,63,29.97,10.0,Calm,Calm,-,N/A,,Clear,0,2012-10-15 09:15:00
4:55 AM,50.7,38.5,63,29.97,10.0,Calm,Calm,-,N/A,,Clear,0,2012-10-15 09:55:00
5:15 AM,49.5,38.5,66,29.97,10.0,SE,3.5,-,N/A,,Clear,130,2012-10-15 10:15:00
5:55 AM,48.2,38.5,69,29.98,10.0,SSE,3.5,-,N/A,,Clear,150,2012-10-15 10:55:00
6:15 AM,47.7,38.3,70,29.98,10.0,SSE,4.6,-,N/A,,Clear,150,2012-10-15 11:15:00
6:35 AM,45.1,38.5,77,29.98,10.0,SSE,4.6,-,N/A,,Clear,160,2012-10-15 11:35:00
6:55 AM,46.4,38.5,74,29.97,10.0,SE,5.8,-,N/A,,Clear,140,2012-10-15 11:55:00
7:15 AM,47.1,38.3,71,29.97,10.0,SE,6.9,-,N/A,,Clear,140,2012-10-15 12:15:00
7:35 AM,47.1,38.3,71,29.97,10.0,SE,5.8,-,N/A,,Clear,140,2012-10-15 12:35:00
7:55 AM,46.0,38.5,75,29.97,10.0,SSE,5.8,-,N/A,,Clear,150,2012-10-15 12:55:00
8:15 AM,46.8,39.2,75,29.98,10.0,SSE,4.6,-,N/A,,Clear,150,2012-10-15 13:15:00
8:35 AM,48.0,40.5,75,29.99,10.0,SE,4.6,-,N/A,,Clear,130,2012-10-15 13:35:00
8:55 AM,49.8,41.9,74,29.99,10.0,Calm,Calm,-,N/A,,Clear,0,2012-10-15 13:55:00
9:15 AM,51.6,42.1,70,29.99,10.0,SE,3.5,-,N/A,,Clear,130,2012-10-15 14:15:00
9:35 AM,53.8,41.7,64,29.99,10.0,ESE,5.8,-,N/A,,Clear,120,2012-10-15 14:35:00
9:55 AM,55.8,41.5,59,29.99,10.0,SSE,5.8,-,N/A,,Clear,150,2012-10-15 14:55:00
10:15 AM,57.0,39.9,53,29.99,10.0,SE,6.9,-,N/A,,Clear,140,2012-10-15 15:15:00
10:55 AM,61.2,40.6,47,29.98,10.0,SE,8.1,-,N/A,,Clear,130,2012-10-15 15:55:00
11:15 AM,62.1,38.8,42,29.98,10.0,SE,10.4,-,N/A,,Clear,140,2012-10-15 16:15:00
11:35 AM,63.3,39.2,41,29.97,10.0,SE,11.5,-,N/A,,Clear,140,2012-10-15 16:35:00
11:55 AM,65.1,40.3,40,29.97,10.0,SE,8.1,-,N/A,,Clear,140,2012-10-15 16:55:00
12:15 PM,66.2,39.7,38,29.97,10.0,SE,9.2,-,N/A,,Clear,140,2012-10-15 17:15:00
12:35 PM,67.6,40.6,37,29.96,10.0,SSE,9.2,-,N/A,,Clear,160,2012-10-15 17:35:00
12:55 PM,68.0,40.1,36,29.94,10.0,SE,8.1,-,N/A,,Clear,130,2012-10-15 17:55:00
1:15 PM,69.1,40.5,35,29.94,10.0,SSE,9.2,-,N/A,,Clear,160,2012-10-15 18:15:00
1:35 PM,70.2,40.1,34,29.92,10.0,SE,6.9,-,N/A,,Clear,130,2012-10-15 18:35:00
1:55 PM,71.8,40.5,32,29.91,10.0,SE,6.9,-,N/A,,Clear,140,2012-10-15 18:55:00
2:15 PM,71.4,40.1,32,29.91,10.0,SE,3.5,-,N/A,,Clear,140,2012-10-15 19:15:00
2:35 PM,72.0,39.9,31,29.90,10.0,South,8.1,-,N/A,,Clear,170,2012-10-15 19:35:00
2:55 PM,72.9,40.6,31,29.89,10.0,SSE,6.9,-,N/A,,Clear,150,2012-10-15 19:55:00
3:15 PM,73.6,41.0,31,29.88,10.0,SE,11.5,-,N/A,,Clear,140,2012-10-15 20:15:00
3:35 PM,73.0,41.2,32,29.86,10.0,SSE,9.2,-,N/A,,Clear,150,2012-10-15 20:35:00
3:55 PM,73.9,41.7,31,29.86,10.0,SSE,9.2,-,N/A,,Clear,150,2012-10-15 20:55:00
4:15 PM,74.3,41.7,31,29.86,10.0,SSE,9.2,-,N/A,,Clear,160,2012-10-15 21:15:00
4:35 PM,73.0,41.2,32,29.85,10.0,SSE,8.1,-,N/A,,Clear,150,2012-10-15 21:35:00
4:55 PM,73.6,42.4,33,29.85,10.0,SE,6.9,-,N/A,,Clear,140,2012-10-15 21:55:00
5:15 PM,73.4,42.1,32,29.84,10.0,SSE,6.9,-,N/A,,Clear,150,2012-10-15 22:15:00
5:35 PM,72.5,43.5,35,29.83,10.0,SE,5.8,-,N/A,,Clear,140,2012-10-15 22:35:00
5:55 PM,71.8,43.5,36,29.83,10.0,SE,8.1,-,N/A,,Clear,140,2012-10-15 22:55:00
6:15 PM,70.7,44.4,39,29.82,10.0,SE,8.1,-,N/A,,Clear,140,2012-10-15 23:15:00
6:35 PM,68.5,45.1,43,29.82,10.0,SE,6.9,-,N/A,,Clear,140,2012-10-15 23:35:00
6:55 PM,66.7,45.5,46,29.82,10.0,SE,6.9,-,N/A,,Clear,140,2012-10-15 23:55:00
7:15 PM,64.9,45.5,49,29.81,10.0,SE,6.9,-,N/A,,Clear,140,2012-10-16 00:15:00
7:35 PM,63.7,45.7,52,29.82,10.0,SE,4.6,-,N/A,,Clear,140,2012-10-16 00:35:00
7:55 PM,63.9,45.1,51,29.82,10.0,SE,6.9,-,N/A,,Clear,140,2012-10-16 00:55:00
8:15 PM,62.6,45.5,54,29.81,10.0,SE,8.1,-,N/A,,Clear,140,2012-10-16 01:15:00
8:35 PM,62.2,45.3,54,29.81,10.0,SSE,9.2,-,N/A,,Clear,150,2012-10-16 01:35:00
8:55 PM,63.0,45.1,52,29.81,10.0,SSE,9.2,-,N/A,,Clear,150,2012-10-16 01:55:00
9:15 PM,62.6,45.1,53,29.81,10.0,SE,8.1,-,N/A,,Clear,140,2012-10-16 02:15:00
9:35 PM,62.1,45.5,55,29.81,10.0,SE,9.2,-,N/A,,Clear,140,2012-10-16 02:35:00
9:55 PM,61.0,45.7,57,29.81,10.0,SSE,9.2,-,N/A,,Clear,150,2012-10-16 02:55:00
10:15 PM,60.1,46.0,60,29.80,10.0,SE,10.4,-,N/A,,Clear,140,2012-10-16 03:15:00